RS-44 & BREEZE-KM R/B (44909 NORAD) Tracking and Keplerian Element Data
This shows tracking and keplerian element data for the satellite.
Feedback or suggestion? Click here.
Element | Value |
Catalog | 44909 |
Name | RS-44 & BREEZE-KM R/B |
Epoch Orbit | 5456 |
Epoch Day | 56.82625331 |
Epoch Year | 2021 |
RAAN | 186.968 |
Inclination | 82.5242 |
Eccentricity | 0.0217175 |
Argument of Perigee | 354.3921 |
Mean Anonmoly | 5.4751 |
Mean Motion | 12.79708544 |
Decay Rate | 0 |
L1 | 1 44909U 19096E 21056.82625331 .00000000 00000-0 -40013-4 0 9998 |
L2 | 2 44909 82.5242 186.9680 0217175 354.3921 5.4751 12.79708544 54568 |
Live tracking and technical data element details for RS-44 & BREEZE-KM R/B (NORAD 44909). RS-44 & BREEZE-KM R/B can be tracked NOW for your location showing map with azimuth and elevation plus other details from your city location.
Track the satellite on the map from your city or location and see movement details for azimuth, elevation, latitude, longitude, range, height, and movement on the map or in text.
IsCatalogInMostPopularTable: catalog: 44909, numindb: 863
Update: records affected: 1
GetName: 44909 RS-44 & BREEZE-KM R/B
Hit Count: updated at: Sat, 27 Feb 2021 12:03:18 GMT